Regional Weather Roundup
Issued by NWS

Home | Current Version | Previous Version | Graphics & Text | Print | Product List | Glossary On
Versions: 1 2 3 4 5 6 7 8 9 10 11 12 13 14 15 16 17 18 19 20 21 22 23 24 25 26 27 28 29 30 31 32 33 34 35 36 37 38 39 40 41 42 43 44 45 46 47 48 49 50
000
ASUS43 KLOT 251703
RWRIL

ILLINOIS REGIONAL WEATHER ROUNDUP
NATIONAL WEATHER SERVICE CHICAGO/ROMEOVILLE IL
1200 PM CDT TUE APR 25 2017

NOTE: "FAIR" INDICATES FEW OR NO CLOUDS BELOW 12,000 FEET WITH NO
SIGNIFICANT WEATHER AND/OR OBSTRUCTIONS TO VISIBILITY.

* THESE STATIONS ARE NOT UNDER NWS QUALITY CONTROL. THEY ALSO MAY NOT
  REPORT WEATHER SUCH AS PRECIPITATION OR FOG.

ILZ001-002-007-009-015-016-024-251800-
NORTHWEST ILLINOIS

CITY           SKY/WX    TMP DP  RH WIND       PRES   REMARKS
MOLINE         CLOUDY    70  44  39 S10       29.60F
STERLING*      MOSUNNY   73  43  33 S8        29.62F
SAVANNA*       CLOUDY    72  46  38 S9        29.61S
$$

ILZ003-004-008-010-011-017-018-251800-
NORTH CENTRAL ILLINOIS

CITY           SKY/WX    TMP DP  RH WIND       PRES   REMARKS
ROCKFORD       CLOUDY    73  46  38 S16G29    29.64F
FREEPORT*      PTSUNNY   72  45  38 S16G22    29.64S
ROCHELLE*      PTSUNNY   73  47  40 S15G23    29.64F
DE KALB*       CLOUDY    70  50  48 S16       29.66F
PERU*          SUNNY     73  45  37 S17       29.64F
$$

ILZ005-006-012>014-019>023-251800-
NORTHEAST ILLINOIS

CITY           SKY/WX    TMP DP  RH WIND       PRES   REMARKS
CHICAGO-OHARE  CLOUDY    74  49  41 S14       29.67F
CHICAGO-MIDWAY CLOUDY    74  50  42 SE10      29.68F
AURORA         MOSUNNY   74  50  42 S15       29.66F
LANSING*       MOSUNNY   71  54  55 SE12      29.70F
JOLIET*        PTSUNNY   74  52  46 S7G18     29.67F
WAUKEGAN       CLOUDY    65  52  62 SE15      29.67F
DUPAGE AIRPORT PTSUNNY   73  52  47 S12G23    29.67F
KANKAKEE*      MOSUNNY   78  51  38 S12G22    29.69F
WHEELING       MOSUNNY   71  49  45 S13       29.69F
MORRIS*        PTSUNNY   76  49  38 S16G23    29.65F
ROMEOVILLE*    CLOUDY    73  55  52 S15       29.67F
NORTHERLY ISL    N/A     64  52  64 SE9         N/A
$$

LMZ740>746-251800-
SOUTHERN LAKE MICHIGAN

STATION/POSITION SKY/WX   TEMP    WIND        PRES    VSBY  WAVE
                          AIR SEA DIR/SP/G                  HT/PER
                          (F)     (DEG/KT/KT) (MB)    (MI)  (FT/S)
SOUTHERN BUOY              46 41  130/ 10/ 12 1006.9          1/ 3
HARRISON CRIB              64     150/ 18/ 18   N/A
BURNHAM HARBOR             61     120/  8/ 11   N/A
CALUMET HARBOR             70     140/  9/ 13 1005.6S
BURNS HARBOR               72     180/  8/ 15 1006.8F
MICHIGAN CITY              68     160/  9/ 11   N/A
ST. JOSEPH                 60 50  170/  8/ 10 1006.8F         1
$$

ILZ025>027-034>036-040-047-049-050-058-095>099-251800-
WEST-CENTRAL ILLINOIS

CITY           SKY/WX    TMP DP  RH WIND       PRES   REMARKS
QUINCY         MOSUNNY   69  49  48 SE15      29.56F
GALESBURG*     CLOUDY    69  46  43 SE6       29.59F
MACOMB*        CLOUDY    71  45  38 SE12      29.60F
JACKSONVILLE*  PTSUNNY   73  45  37 S13       29.61F
PITTSFIELD*    CLOUDY    71  49  45 SE14      29.60F
$$

ILZ028>032-037-038-041>044-048-051>054-059>061-251800-
CENTRAL ILLINOIS

CITY           SKY/WX    TMP DP  RH WIND       PRES   REMARKS
PONTIAC        SUNNY     77  50  39 S20       29.67F
BLOOMINGTON    SUNNY     75  51  43 S21G29    29.66F
DECATUR        SUNNY     74  55  51 S15G24    29.68F
PEORIA         MOSUNNY   73  43  33 S16       29.63F
LACON*         MOSUNNY   73  50  43 S13       29.63F
LINCOLN*       SUNNY     76  47  35 S10G21    29.64F
SPRINGFIELD    MOSUNNY   77  46  33 S15       29.64F
TAYLORVILLE    SUNNY     76  49  38 S17       29.66F
$$

ILZ033-039-045-046-055>057-062-063-251800-
EAST-CENTRAL ILLINOIS

CITY           SKY/WX    TMP DP  RH WIND       PRES   REMARKS
CHAMPAIGN      SUNNY     76  49  38 S17G25    29.69F
RANTOUL*       SUNNY     77  52  41 S15G21    29.69F
MATTOON        SUNNY     72  55  55 S14G23    29.70F
PARIS*         MOSUNNY   74  55  51 S15       29.73F
$$

ILZ079-100>102-251800-
SOUTHWEST ILLINOIS

CITY           SKY/WX    TMP DP  RH WIND       PRES   REMARKS
ALTON          PTSUNNY   73  48  40 S17G26    29.64F
BELLEVILLE     SUNNY     75  52  44 E13G22    29.63F
CAHOKIA*       SUNNY     74  50  42 S15G22    29.62F
SPARTA*        SUNNY     72  52  48 S15G24    29.67F
$$

ILZ064>066-069>071-074>076-080>082-084>086-088>090-092>094-251800-
SOUTH-CENTRAL ILLINOIS

CITY           SKY/WX    TMP DP  RH WIND       PRES   REMARKS
CARBONDALE     SUNNY     73  55  53 S13       29.69F
CAIRO*         SUNNY     73  55  53 S8G16     29.71F
EFFINGHAM*     SUNNY     74  56  52 SE14G21   29.71F
MARION         MOSUNNY   73  55  53 S9G18     29.72F
MT. VERNON     SUNNY     75  57  53 S10       29.70F
CENTRALIA*     SUNNY     74  55  50 S15       29.69S
SALEM*         SUNNY     75  53  45 S14       29.69F
METROPOLIS*    SUNNY     74  56  54 S8        29.73F
$$

ILZ067-068-072-073-078-083-087-091-251800-
SOUTHEAST ILLINOIS

CITY           SKY/WX    TMP DP  RH WIND       PRES   REMARKS
LAWRENCEVILLE  SUNNY     74  55  51 S12G20    29.73F
FLORA*         SUNNY     75  58  55 S14       29.71F
FAIRFIELD*     MOSUNNY   74  57  55 SE8       29.71F
HARRISBURG*    SUNNY     73  58  59 S9G16     29.71F
ROBINSON*      MOSUNNY   73  54  51 S8G18     29.74F
CARMI*         SUNNY     73  59  60 S12       29.72F
$$

ABBREVIATIONS USED IN REMARKS
   TC - TEMPERATURE IN CELSIUS
  WCI - WIND CHILL INDEX
   HX - HEAT INDEX
  VSB - VISIBILITY
$$





USA.gov is the U.S. government's official web portal to all federal, state and local government web resources and services.